SB KEPS @ AMSAT $ORB08353.O Orbital Elements 08353.OSCAR
HR AMSAT ORBITAL ELEMENTS FOR OSCAR SATELLITES FROM WA5QGD FORT WORTH,TX December 18, 2008 Send Subscribe/unsubscribe to KEPS at http://www.amsat.org/mailman/listinfo/keps BID: ORB08353.O TO ALL RADIO AMATEURS BT
Satellite: PO-63 Catalog number: 29712 Epoch time: 08353.69443743 Element set: 68 Inclination: 097.8538 deg RA of node: 048.2092 deg Eccentricity: 0.0014728 Arg of perigee: 138.9896 deg Mean anomaly: 221.2410 deg Mean motion: 14.80378717 rev/day Decay rate: 5.77e-06 rev/day^2 Epoch rev: 10476 Checksum: 339
Satellite: VO-52 Catalog number: 28650 Epoch time: 08352.77845026 Element set: 106 Inclination: 097.7678 deg RA of node: 054.1278 deg Eccentricity: 0.0026054 Arg of perigee: 262.1260 deg Mean anomaly: 097.6974 deg Mean motion: 14.81533193 rev/day Decay rate: 1.2e-07 rev/day^2 Epoch rev: 19578 Checksum: 323
Satellite: AO-40 Catalog number: 26609 Epoch time: 08353.40424836 Element set: 168 Inclination: 008.3137 deg RA of node: 042.8842 deg Eccentricity: 0.7939827 Arg of perigee: 156.3605 deg Mean anomaly: 283.1390 deg Mean motion: 01.25584091 rev/day Decay rate: -1.12e-06 rev/day^2 Epoch rev: 3735 Checksum: 307
Satellite: SO-33 Catalog number: 25509 Epoch time: 08352.39297172 Element set: 347 Inclination: 031.4341 deg RA of node: 000.4495 deg Eccentricity: 0.0354862 Arg of perigee: 189.0754 deg Mean anomaly: 170.3273 deg Mean motion: 14.28235462 rev/day Decay rate: 2.46e-06 rev/day^2 Epoch rev: 52982 Checksum: 307
Satellite: FO-29 Catalog number: 24278 Epoch time: 08352.82059279 Element set: 928 Inclination: 098.5773 deg RA of node: 244.9753 deg Eccentricity: 0.0351423 Arg of perigee: 100.1832 deg Mean anomaly: 263.9135 deg Mean motion: 13.52940662 rev/day Decay rate: 9.7e-07 rev/day^2 Epoch rev: 60922 Checksum: 332
Satellite: RS-15 Catalog number: 23439 Epoch time: 08350.56563056 Element set: 166 Inclination: 064.8150 deg RA of node: 201.7472 deg Eccentricity: 0.0145790 Arg of perigee: 087.5030 deg Mean anomaly: 274.2577 deg Mean motion: 11.27553148 rev/day Decay rate: -3.9e-07 rev/day^2 Epoch rev: 57541 Checksum: 305
Satellite: UO-11 Catalog number: 14781 Epoch time: 08352.31081423 Element set: 838 Inclination: 098.1328 deg RA of node: 028.8659 deg Eccentricity: 0.0008678 Arg of perigee: 197.7138 deg Mean anomaly: 162.3741 deg Mean motion: 14.79683315 rev/day Decay rate: -5.2e-07 rev/day^2 Epoch rev: 33093 Checksum: 324
Satellite: AO-10 Catalog number: 14129 Epoch time: 08348.79580094 Element set: 598 Inclination: 026.0336 deg RA of node: 181.3286 deg Eccentricity: 0.5959267 Arg of perigee: 181.2834 deg Mean anomaly: 175.9706 deg Mean motion: 02.05868889 rev/day Decay rate: 8.5e-07 rev/day^2 Epoch rev: 19180 Checksum: 356
Satellite: AO-07 Catalog number: 07530 Epoch time: 08353.56666007 Element set: 355 Inclination: 101.4466 deg RA of node: 018.7533 deg Eccentricity: 0.0011792 Arg of perigee: 261.7665 deg Mean anomaly: 098.2071 deg Mean motion: 12.53574899 rev/day Decay rate: -2.7e-07 rev/day^2 Epoch rev: 56008 Checksum: 312
/EX SB KEPS @ AMSAT $ORB08353.D Orbital Elements 08353.MICROS
HR AMSAT ORBITAL ELEMENTS FOR THE MICROSATS FROM WA5QGD FORT WORTH,TX December 18, 2008 Send Subscribe/unsubscribe to KEPS at http://www.amsat.org/mailman/listinfo/keps BID: ORB08353.D TO ALL RADIO AMATEURS BT
Satellite: CO-65 Catalog number: 32785 Epoch time: 08352.84193047 Element set: 239 Inclination: 097.9719 deg RA of node: 052.0785 deg Eccentricity: 0.0013832 Arg of perigee: 260.2860 deg Mean anomaly: 099.6769 deg Mean motion: 14.81427416 rev/day Decay rate: -1.5e-07 rev/day^2 Epoch rev: 3459 Checksum: 337
Satellite: CP4 Catalog number: 31132 Epoch time: 08352.13779777 Element set: 485 Inclination: 098.0212 deg RA of node: 050.6914 deg Eccentricity: 0.0086835 Arg of perigee: 119.7700 deg Mean anomaly: 241.2176 deg Mean motion: 14.55168336 rev/day Decay rate: 2.22e-06 rev/day^2 Epoch rev: 8855 Checksum: 305
Satellite: CP3 Catalog number: 31128 Epoch time: 08352.09107728 Element set: 508 Inclination: 098.0164 deg RA of node: 047.5713 deg Eccentricity: 0.0103752 Arg of perigee: 128.7635 deg Mean anomaly: 232.2883 deg Mean motion: 14.52001381 rev/day Decay rate: -4.6e-07 rev/day^2 Epoch rev: 8847 Checksum: 289
Satellite: CO-56 Catalog number: 28941 Epoch time: 08353.43013812 Element set: 647 Inclination: 098.1224 deg RA of node: 130.9424 deg Eccentricity: 0.0132639 Arg of perigee: 086.9336 deg Mean anomaly: 274.7191 deg Mean motion: 15.67798852 rev/day Decay rate: 3.4176e-04 rev/day^2 Epoch rev: 15879 Checksum: 349
Satellite: AO-51 Catalog number: 28375 Epoch time: 08352.47990606 Element set: 269 Inclination: 098.0581 deg RA of node: 006.6285 deg Eccentricity: 0.0084199 Arg of perigee: 317.5243 deg Mean anomaly: 041.9452 deg Mean motion: 14.40627916 rev/day Decay rate: 1.0e-07 rev/day^2 Epoch rev: 23479 Checksum: 323
Satellite: CO-57 Catalog number: 27848 Epoch time: 08353.07753424 Element set: 416 Inclination: 098.7157 deg RA of node: 357.8603 deg Eccentricity: 0.0009645 Arg of perigee: 314.4936 deg Mean anomaly: 045.5431 deg Mean motion: 14.20418395 rev/day Decay rate: 8.0e-08 rev/day^2 Epoch rev: 28351 Checksum: 324
Satellite: CO-55 Catalog number: 27844 Epoch time: 08351.92767180 Element set: 466 Inclination: 098.7152 deg RA of node: 357.6587 deg Eccentricity: 0.0009361 Arg of perigee: 313.6066 deg Mean anomaly: 046.4318 deg Mean motion: 14.20612638 rev/day Decay rate: 5.1e-07 rev/day^2 Epoch rev: 28338 Checksum: 325
Satellite: SO-50 Catalog number: 27607 Epoch time: 08352.04146013 Element set: 767 Inclination: 064.5576 deg RA of node: 218.2953 deg Eccentricity: 0.0082947 Arg of perigee: 243.9614 deg Mean anomaly: 115.2880 deg Mean motion: 14.71402077 rev/day Decay rate: -.00000000 rev/day^2 Epoch rev: 32187 Checksum: 289
Satellite: NO-44 Catalog number: 26931 Epoch time: 08352.73065530 Element set: 52 Inclination: 067.0499 deg RA of node: 171.8182 deg Eccentricity: 0.0006169 Arg of perigee: 258.1543 deg Mean anomaly: 101.8875 deg Mean motion: 14.29542365 rev/day Decay rate: 7.8e-07 rev/day^2 Epoch rev: 37664 Checksum: 319
Satellite: GO-32 Catalog number: 25397 Epoch time: 08352.25997442 Element set: 774 Inclination: 098.3439 deg RA of node: 018.1903 deg Eccentricity: 0.0002073 Arg of perigee: 074.0824 deg Mean anomaly: 286.0585 deg Mean motion: 14.23152730 rev/day Decay rate: 3.9e-07 rev/day^2 Epoch rev: 54225 Checksum: 307
Satellite: IO-26 Catalog number: 22826 Epoch time: 08352.71126363 Element set: 848 Inclination: 098.4055 deg RA of node: 306.9265 deg Eccentricity: 0.0009831 Arg of perigee: 076.5053 deg Mean anomaly: 283.7224 deg Mean motion: 14.29504269 rev/day Decay rate: -2.4e-07 rev/day^2 Epoch rev: 79408 Checksum: 320
Satellite: AO-27 Catalog number: 22825 Epoch time: 08352.89923343 Element set: 131 Inclination: 098.4139 deg RA of node: 306.2792 deg Eccentricity: 0.0009329 Arg of perigee: 079.3224 deg Mean anomaly: 280.8995 deg Mean motion: 14.29254209 rev/day Decay rate: .00000000 rev/day^2 Epoch rev: 79401 Checksum: 308
Satellite: LO-19 Catalog number: 20442 Epoch time: 08351.96999887 Element set: 412 Inclination: 098.2211 deg RA of node: 330.8566 deg Eccentricity: 0.0011862 Arg of perigee: 355.0323 deg Mean anomaly: 005.0756 deg Mean motion: 14.32048450 rev/day Decay rate: 3.5e-07 rev/day^2 Epoch rev: 98723 Checksum: 306
Satellite: AO-16 Catalog number: 20439 Epoch time: 08353.42045320 Element set: 489 Inclination: 098.2546 deg RA of node: 324.2950 deg Eccentricity: 0.0011014 Arg of perigee: 353.6971 deg Mean anomaly: 006.4064 deg Mean motion: 14.31810889 rev/day Decay rate: -3.0e-07 rev/day^2 Epoch rev: 98728 Checksum: 297
/EX SB KEPS @ AMSAT $ORB08353.W Orbital Elements 08353.WEATHER
HR AMSAT ORBITAL ELEMENTS FOR WEATHER SATELLITES FROM WA5QGD FORT WORTH,TX December 18, 2008 Send Subscribe/unsubscribe to KEPS at http://www.amsat.org/mailman/listinfo/keps BID: ORB08353.W TO ALL RADIO AMATEURS BT
Satellite: NOAA-18 Catalog number: 28654 Epoch time: 08353.46744718 Element set: 707 Inclination: 098.8901 deg RA of node: 292.2946 deg Eccentricity: 0.0014677 Arg of perigee: 150.4602 deg Mean anomaly: 209.7405 deg Mean motion: 14.11218598 rev/day Decay rate: 3.42e-06 rev/day^2 Epoch rev: 18446 Checksum: 329
Satellite: NOAA-17 Catalog number: 27453 Epoch time: 08353.42642094 Element set: 225 Inclination: 098.5118 deg RA of node: 052.4984 deg Eccentricity: 0.0010883 Arg of perigee: 292.4658 deg Mean anomaly: 067.5384 deg Mean motion: 14.24026797 rev/day Decay rate: 1.73e-06 rev/day^2 Epoch rev: 33702 Checksum: 319
Satellite: NOAA-16 Catalog number: 26536 Epoch time: 08353.45095612 Element set: 215 Inclination: 099.1720 deg RA of node: 346.8032 deg Eccentricity: 0.0011211 Arg of perigee: 070.0454 deg Mean anomaly: 290.1910 deg Mean motion: 14.12505649 rev/day Decay rate: -5.9e-07 rev/day^2 Epoch rev: 42478 Checksum: 278
Satellite: OKEAN-0 Catalog number: 25860 Epoch time: 08353.07171130 Element set: 552 Inclination: 097.7670 deg RA of node: 335.6601 deg Eccentricity: 0.0001762 Arg of perigee: 060.6452 deg Mean anomaly: 299.4930 deg Mean motion: 14.73549342 rev/day Decay rate: -1.0e-08 rev/day^2 Epoch rev: 50647 Checksum: 285
Satellite: FENGYUN1 Catalog number: 25730 Epoch time: 08352.92327621 Element set: 640 Inclination: 098.7418 deg RA of node: 322.6614 deg Eccentricity: 0.0022928 Arg of perigee: 007.6599 deg Mean anomaly: 352.4917 deg Mean motion: 14.07903619 rev/day Decay rate: 4.43e-06 rev/day^2 Epoch rev: 49481 Checksum: 315
Satellite: RESURS Catalog number: 25394 Epoch time: 08353.74288029 Element set: 97 Inclination: 098.3623 deg RA of node: 029.0632 deg Eccentricity: 0.0002303 Arg of perigee: 035.9694 deg Mean anomaly: 324.1640 deg Mean motion: 14.24176886 rev/day Decay rate: -1.6e-07 rev/day^2 Epoch rev: 54271 Checksum: 299
